sat.trackr.live / text

‹ back to catalog

STARLINK-35340

NORAD 66022 · 2025-232T

PAYLOAD ACTIVE UNKNOWN

§ Identity

Operator
Country
US
Launch date
2025-10-16
Launch site
AFETR
Launch vehicle
Mass (kg)
RCS (m²)

Purposes: comms

External: N2YO · Heavens-Above · Gunter

§ Orbital elements

Epoch: 2026-09-20T05:20:21.107328Z

Period
93.85 min
Inclination
53.1604°
Eccentricity
0.0001451
Mean motion
15.34398050 rev/d
Perigee alt
461.7 km
Apogee alt
463.7 km
Semi-major
6,840.8 km
B*
5.5481e-4
RAAN
279.3123°
Arg perigee
86.0916°
Mean anomaly
274.0252°
Rev number
5,323

§ Raw data

STARLINK-353401 66022U 25232T   26263.22246652  .00018414  00000+0  55481-3 0  99912 66022  53.1604 279.3123 0001451  86.0916 274.0252 15.34398050 53238

JSON: /api/v1/satellites/66022 · /tle

For live sub-satellite position, see the globe view (requires WebGL).

§ Visibility from observer

Set your observer location to see the next 7 days of passes ≥ 10°. The values pass through the URL so the page stays shareable.

No JS? Fill the form by hand. The geolocation button needs JavaScript.